This demonstration page uses our WeatherBlox Daily Observations layout. Learn more.

Left ArrowRight Arrow

34.16533, -84.80231

Hourly Observations for March 16, 2021

Temp ( °F °C ) Dew Point ( °F °C ) Humidity (%) Winds ( mph kmh ) Pressure ( in mb ) Visibility ( mi km ) Precip ( " mm )
12:53 am 00:53 Cloudy 56 13.3 47 8.3 72 72 E 8 13 30.04 1017 10 16 0.00 0.00
1:53 am 01:53 Cloudy 55 12.8 45 7.2 69 69 ESE 7 11 30.04 1017 10 16 0.00 0.00
2:13 am 02:13 Cloudy 55 12.8 45 7.2 69 69 VRB 7 11 30.07 1018 10 16 0.00 0.00
2:53 am 02:53 Cloudy 55 12.8 44 6.7 67 67 undefined N/A 30.04 1017 10 16 0.00 0.00
3:53 am 03:53 Cloudy with Light Rain 53 11.7 43 6.1 69 69 E 10 17 30.01 1016 10 16 0.01 0.25
4:53 am 04:53 Cloudy with Light Rain 51 10.6 43 6.1 74 74 E 12 19 30.01 1016 6 10 0.05 1.27
5:53 am 05:53 Cloudy 50 10 44 6.7 80 80 E 8 13 30.00 1016 10 16 0.01 0.25
6:30 am 06:30 Cloudy 51 10.6 44 6.7 77 77 VRB 7 11 30.03 1017 10 16 0.00 0.00
6:53 am 06:53 Cloudy 51 10.6 44 6.7 77 77 E 9 15 30.00 1016 10 16 0.00 0.00
7:53 am 07:53 Cloudy with Light Rain 50 10 45 7.2 83 83 E 7 11 30.05 1018 8 13 0.02 0.51
8:28 am 08:28 Cloudy with Rain 49 9.4 45 7.2 86 86 NE 8 13 30.11 1020 6 10 0.05 1.27
8:53 am 08:53 Cloudy with Light Rain 48 8.9 45 7.2 89 89 NE 8 13 30.07 1018 4 6 0.13 3.30
9:33 am 09:33 Cloudy with Rain 48 8.9 45 7.2 89 89 E 8 13 30.11 1020 3 5 0.05 1.27
9:53 am 09:53 Cloudy with Light Rain 48 8.9 45 7.2 89 89 E 8 13 30.08 1019 8 13 0.06 1.52
10:41 am 10:41 Cloudy with Rain 48 8.9 44 6.7 86 86 E 8 13 30.11 1020 3 4 0.06 1.52
10:53 am 10:53 Cloudy with Light Rain 48 8.9 45 7.2 89 89 E 8 13 30.08 1019 3 5 0.08 2.03
11:33 am 11:33 Cloudy with Light Rain 48 8.9 45 7.2 89 89 E 8 13 30.10 1019 3 4 0.05 1.27
11:42 am 11:42 Cloudy with Light Rain 49 9.4 45 7.2 86 86 E 9 15 30.11 1020 5 8 0.05 1.27
11:53 am 11:53 Cloudy 48 8.9 45 7.2 89 89 ESE 7 11 30.07 1018 10 16 0.05 1.27
12:53 pm 12:53 Cloudy 49 9.4 45 7.2 86 86 E 9 15 30.06 1018 10 16 0.01 0.25
1:53 pm 13:53 Cloudy with Light Rain 50 10 46 7.8 86 86 VRB 6 9 30.03 1017 10 16 0.01 0.25
2:53 pm 14:53 Cloudy with Light Rain 50 10 47 8.3 89 89 E 5 7 30.02 1017 9 14 0.00 0.00
3:53 pm 15:53 Cloudy 51 10.6 47 8.3 86 86 VRB 6 9 30.01 1016 10 16 0.00 0.00
4:53 pm 16:53 Cloudy with Light Rain 51 10.6 48 8.9 89 89 VRB 5 7 30.00 1016 3 4 0.02 0.51
5:04 pm 17:04 Cloudy with Light Rain 50 10 47 8.3 89 89 E 9 15 30.02 1017 3 5 0.01 0.25
5:25 pm 17:25 Cloudy with Light Rain 50 10 47 8.3 89 89 ENE 6 9 30.03 1017 3 4 0.02 0.51
5:33 pm 17:33 Cloudy with Light Rain 50 10 47 8.3 89 89 ENE 6 9 30.02 1017 5 8 0.02 0.51
5:43 pm 17:43 Cloudy 50 10 47 8.3 89 89 SE 7 11 30.03 1017 8 13 0.03 0.76
5:53 pm 17:53 Cloudy 51 10.6 47 8.3 86 86 E 6 9 29.99 1016 9 14 0.03 0.76
6:53 pm 18:53 Cloudy 51 10.6 47 8.3 86 86 E 6 9 29.98 1015 10 16 0.00 0.00
7:53 pm 19:53 Cloudy 51 10.6 48 8.9 89 89 E 5 7 29.98 1015 10 16 0.00 0.00
8:53 pm 20:53 Cloudy 51 10.6 48 8.9 89 89 Calm 30.01 1016 10 16 0.00 0.00
9:41 pm 21:41 Cloudy 51 10.6 48 8.9 89 89 S 3 6 30.07 1018 10 16 0.00 0.00
9:53 pm 21:53 Cloudy 51 10.6 48 8.9 89 89 ESE 3 6 30.04 1017 10 16 0.00 0.00
10:53 pm 22:53 Cloudy 51 10.6 48 8.9 89 89 ESE 3 6 30.04 1017 10 16 0.00 0.00
11:53 pm 23:53 Cloudy 52 11.1 48 8.9 86 86 Calm 30.05 1018 9 14 0.00 0.00

Powered by AerisWeather